Regional Weather Roundup
Issued by NWS

Home | Current Version | Previous Version | Text Only | Print | Product List | Glossary Off
Versions: 1 2 3 4 5 6 7 8 9 10 11 12 13 14 15 16 17 18 19 20 21 22 23 24 25 26 27 28 29 30 31 32 33 34 35 36 37 38 39 40 41 42 43 44 45 46 47

000
ASUS45 KCYS 020510
RWRWY

WYOMING REGIONAL WEATHER ROUNDUP
NATIONAL WEATHER SERVICE CHEYENNE WY
1000 PM MST SUN MAR 01 2015

NOTE:  "FAIR" INDICATES FEW OR NO CLOUDS BELOW 12,000 FEET
WITH NO SIGNIFICANT WEATHER AND/OR OBSTRUCTIONS TO VISIBILITY.

WYZ001-020600-
YELLOWSTONE NATIONAL PARK

CITY           SKY/WX    TMP DP  RH WIND       PRES   REMARKS
LK YELLOWSTONE   N/A     -3  -9  75 NW3       30.00S
W YELLOWSTONE  NOT AVBL

$$
WYZ002>013-054>058-071-098>099-020600-
NORTHERN WYOMING

CITY           SKY/WX    TMP DP  RH WIND       PRES   REMARKS
JACKSON        MOCLDY     7   3  85 N12       30.03R WCI  -9
CODY           FAIR      18  10  73 S8        30.03S WCI   7
GREYBULL       FAIR      20  10  65 SE3       30.11F
WORLAND        FAIR      20  11  68 SE10      30.10F WCI   9
SHERIDAN       FAIR      16   5  62 VRB5      30.07F WCI   9
BUFFALO        FAIR      17   8  67 S17       30.04F WCI   1
GILLETTE       FAIR      17   7  64 S10       30.13F WCI   5
HULETT         FAIR      10   3  72 SW5       30.16F WCI   2
NEWCASTLE      FAIR      18   3  53 SE7       30.21S WCI   8

$$
WYZ014>020-022>026-101>103-020600-
CENTRAL WYOMING

CITY           SKY/WX    TMP DP  RH WIND       PRES   REMARKS
BIG PINEY      FAIR      15  11  83 NE3       30.05R
PINEDALE       FAIR       5   3  92 W8        30.06S WCI  -8
DUBOIS         FAIR       9   5  85 NW15      30.01F WCI  -8
LANDER         FAIR      13   6  74 W9        30.08R WCI   1
RIVERTON       FAIR      11   3  70 W5        30.09S WCI   3
CASPER         FAIR      21  13  71 E7        30.07F WCI  12
DOUGLAS        FAIR      23  12  62 SE15      30.13F WCI  10

$$
WYZ021-027>030-104>119-020600-
SOUTHERN WYOMING

CITY           SKY/WX    TMP DP  RH WIND       PRES   REMARKS
EVANSTON       CLOUDY    26  20  77 E6        30.01S WCI  19
FORT BRIDGER   CLOUDY    25  22  91 SW3       30.04S
ROCK SPRINGS   FAIR      24  16  71 E5        30.02R WCI  18
DIXON          CLOUDY    31  26  81 CALM      30.07F
RAWLINS        FAIR      22  15  75 CALM      30.04F
SARATOGA       CLOUDY    27  21  80 S3        30.05S
LARAMIE        FAIR      14  11  87 S22       30.06F WCI  -4
CHEYENNE       CLOUDY    20  13  74 S12       30.16F WCI   8
TORRINGTON     FAIR      23  10  57 E9        30.22F WCI  13
PINE BLUFFS    MOCLDY    23  19  86 S6        30.23S WCI  16

$$


USA.gov is the U.S. government's official web portal to all federal, state and local government web resources and services.